CSN6378 ZGGG-ZYCC

Flight info

Callsign CSN6378
Flight time 3h 32m
Altitude 35100
Route MIKIP7 MIKIP A461 BUBDA W56 VYK G212 SOTMU B339 HUR B334 TGO G341 BUTET BUTET7A
Aircraft A20N/M-SDE2E3FGHIRWXY/LB1

Departure

Time 2026-04-22 02:44
Airport Guangzhou Baiyun International Airport (ZGGG)

Arrival

Time 2026-04-22 06:16
Airport Changchun Longjia International Airport (ZYCC)
Time Latitude Longitude Altitude Speed Heading
2026-04-22 02:15 23.40305 113.29633 54 ft 0 kts 13°
2026-04-22 02:34 23.40292 113.29630 54 ft 2 kts 13°
2026-04-22 02:34 23.40277 113.29626 54 ft 2 kts 14°
2026-04-22 02:34 23.40265 113.29622 54 ft 2 kts
2026-04-22 02:35 23.40250 113.29625 54 ft 2 kts 331°
2026-04-22 02:35 23.40241 113.29633 54 ft 1 kts 306°
2026-04-22 02:35 23.40236 113.29641 54 ft 1 kts 303°
2026-04-22 02:35 23.40236 113.29642 54 ft 0 kts 304°
2026-04-22 02:38 23.40236 113.29641 54 ft 1 kts 304°
2026-04-22 02:38 23.40245 113.29623 54 ft 3 kts 294°
2026-04-22 02:38 23.40255 113.29588 54 ft 5 kts 284°
2026-04-22 02:39 23.40267 113.29538 54 ft 7 kts 284°
2026-04-22 02:39 23.40281 113.29479 54 ft 8 kts 284°
2026-04-22 02:39 23.40306 113.29418 54 ft 9 kts 298°
2026-04-22 02:39 23.40325 113.29349 54 ft 9 kts 284°
2026-04-22 02:40 23.40340 113.29288 54 ft 7 kts 291°
2026-04-22 02:40 23.40387 113.29266 54 ft 8 kts
2026-04-22 02:40 23.40450 113.29283 54 ft 9 kts 14°
2026-04-22 02:40 23.40520 113.29302 54 ft 10 kts 14°
2026-04-22 02:41 23.40598 113.29324 54 ft 11 kts 14°
2026-04-22 02:41 23.40679 113.29346 54 ft 12 kts 14°
2026-04-22 02:41 23.40759 113.29367 54 ft 6 kts 14°
2026-04-22 02:41 23.40800 113.29355 54 ft 7 kts 302°
2026-04-22 02:42 23.40816 113.29296 54 ft 8 kts 283°
2026-04-22 02:42 23.40829 113.29232 54 ft 9 kts 272°
2026-04-22 02:42 23.40793 113.29184 54 ft 5 kts 193°
2026-04-22 02:42 23.40791 113.29184 54 ft 0 kts 193°
2026-04-22 02:43 23.40616 113.29137 54 ft 60 kts 193°
2026-04-22 02:43 23.39980 113.28965 55 ft 124 kts 194°
2026-04-22 02:44 23.39019 113.28706 161 ft 161 kts 193°
2026-04-22 02:44 23.37971 113.28414 821 ft 155 kts 193°
2026-04-22 02:44 23.36935 113.28105 1449 ft 155 kts 196°
2026-04-22 02:44 23.35891 113.27754 2006 ft 161 kts 197°
2026-04-22 02:45 23.34774 113.27374 2425 ft 177 kts 197°
2026-04-22 02:45 23.33573 113.26852 2810 ft 197 kts 214°
2026-04-22 02:45 23.32668 113.25641 3183 ft 223 kts 240°
2026-04-22 02:45 23.31992 113.24061 3765 ft 236 kts 244°
2026-04-22 02:46 23.31534 113.22334 4401 ft 242 kts 264°
2026-04-22 02:46 23.31753 113.20530 5123 ft 246 kts 281°
2026-04-22 02:46 23.32212 113.18758 5601 ft 245 kts 281°
2026-04-22 02:46 23.32668 113.16960 5847 ft 245 kts 281°
2026-04-22 02:47 23.33102 113.15173 5872 ft 244 kts 280°
2026-04-22 02:47 23.33521 113.13399 5880 ft 243 kts 279°
2026-04-22 02:47 23.33935 113.11607 5883 ft 242 kts 279°
2026-04-22 02:47 23.34486 113.09870 5863 ft 249 kts 297°
2026-04-22 02:48 23.35749 113.08511 6085 ft 267 kts 326°
2026-04-22 02:48 23.37564 113.07893 6571 ft 287 kts 352°
2026-04-22 02:48 23.39588 113.07889 7148 ft 295 kts 356°
2026-04-22 02:48 23.41663 113.07922 7838 ft 298 kts 356°
2026-04-22 02:49 23.43717 113.07941 8542 ft 298 kts 355°
2026-04-22 02:49 23.45799 113.07946 9235 ft 299 kts 354°
2026-04-22 02:49 23.47877 113.07942 9931 ft 300 kts 354°
2026-04-22 02:49 23.49975 113.07935 10431 ft 308 kts 354°
2026-04-22 02:50 23.52184 113.07918 10715 ft 324 kts 354°
2026-04-22 02:50 23.54517 113.07896 10989 ft 340 kts 354°
2026-04-22 02:50 23.56950 113.07874 11256 ft 356 kts 355°
2026-04-22 02:50 23.59446 113.07852 11667 ft 365 kts 355°
2026-04-22 02:51 23.62032 113.07835 12263 ft 369 kts 355°
2026-04-22 02:51 23.64588 113.07816 12848 ft 372 kts 355°
2026-04-22 02:51 23.67199 113.07801 13404 ft 376 kts 356°
2026-04-22 02:51 23.69835 113.08089 13950 ft 384 kts
2026-04-22 02:52 23.72423 113.08922 14539 ft 390 kts 18°
2026-04-22 02:52 23.74887 113.10138 15089 ft 394 kts 22°
2026-04-22 02:52 23.77371 113.11465 15598 ft 396 kts 23°
2026-04-22 02:52 23.79847 113.12802 16096 ft 399 kts 22°
2026-04-22 02:53 23.82318 113.14127 16590 ft 400 kts 22°
2026-04-22 02:53 23.84847 113.15475 17075 ft 402 kts 22°
2026-04-22 02:53 23.87355 113.16805 17511 ft 404 kts 22°
2026-04-22 02:53 23.89904 113.18151 17960 ft 406 kts 22°
2026-04-22 02:54 23.92439 113.19489 18376 ft 410 kts 22°
2026-04-22 02:54 23.95019 113.20851 18783 ft 412 kts 22°
2026-04-22 02:54 23.97641 113.22236 19221 ft 415 kts 22°
2026-04-22 02:54 24.00217 113.23596 19638 ft 417 kts 22°
2026-04-22 02:55 24.02850 113.24988 20062 ft 419 kts 22°
2026-04-22 02:55 24.05489 113.26384 20484 ft 421 kts 22°
2026-04-22 02:55 24.08132 113.27782 20881 ft 423 kts 21°
2026-04-22 02:55 24.10788 113.29186 21272 ft 425 kts 21°
2026-04-22 02:56 24.13468 113.30600 21673 ft 427 kts 21°
2026-04-22 02:56 24.16124 113.32000 22049 ft 429 kts 21°
2026-04-22 02:56 24.18847 113.33440 22434 ft 431 kts 22°
2026-04-22 02:56 24.21554 113.34875 22800 ft 434 kts 22°
2026-04-22 02:57 24.24254 113.36311 23146 ft 436 kts 21°
2026-04-22 02:57 24.27000 113.37769 23471 ft 440 kts 21°
2026-04-22 02:57 24.29750 113.39229 23816 ft 442 kts 21°
2026-04-22 02:57 24.32572 113.40642 24166 ft 441 kts 16°
2026-04-22 02:58 24.35481 113.41611 24476 ft 438 kts
2026-04-22 02:58 24.38493 113.42094 24819 ft 434 kts 359°
2026-04-22 02:58 24.41527 113.42224 25159 ft 434 kts 356°
2026-04-22 02:58 24.44563 113.42287 25481 ft 436 kts 356°
2026-04-22 02:59 24.47600 113.42352 25792 ft 438 kts 355°
2026-04-22 02:59 24.50645 113.42425 26089 ft 441 kts 355°
2026-04-22 02:59 24.53739 113.42503 26392 ft 443 kts 355°
2026-04-22 02:59 24.56827 113.42584 26708 ft 444 kts 355°
2026-04-22 03:00 24.59898 113.42667 26986 ft 446 kts 356°
2026-04-22 03:00 24.63019 113.42754 27266 ft 448 kts 355°
2026-04-22 03:00 24.66153 113.42841 27547 ft 450 kts 355°
2026-04-22 03:00 24.69319 113.42931 27777 ft 453 kts 355°
2026-04-22 03:01 24.72462 113.43018 28011 ft 456 kts 355°
2026-04-22 03:01 24.75633 113.43108 28265 ft 457 kts 355°
2026-04-22 03:01 24.78835 113.43198 28512 ft 459 kts 355°
2026-04-22 03:01 24.82030 113.43289 28768 ft 461 kts 355°
2026-04-22 03:02 24.85235 113.43381 29016 ft 462 kts 355°
2026-04-22 03:02 24.88480 113.43471 29281 ft 463 kts 355°
2026-04-22 03:02 24.91708 113.43564 29538 ft 464 kts 355°
2026-04-22 03:02 24.94951 113.43657 29789 ft 464 kts 355°
2026-04-22 03:03 24.98159 113.43748 30037 ft 464 kts 355°
2026-04-22 03:03 25.01379 113.43842 30360 ft 462 kts 355°
2026-04-22 03:03 25.04627 113.43936 30701 ft 460 kts 355°
2026-04-22 03:03 25.07787 113.44027 30998 ft 458 kts 355°
2026-04-22 03:04 25.10984 113.44118 31052 ft 457 kts 354°
2026-04-22 03:04 25.17338 113.44301 31068 ft 456 kts 355°
2026-04-22 03:05 25.23698 113.44483 31072 ft 455 kts 354°
2026-04-22 03:05 25.30041 113.44665 31081 ft 455 kts 354°
2026-04-22 03:06 25.36368 113.44846 31084 ft 456 kts 354°
2026-04-22 03:06 25.42702 113.45029 31086 ft 455 kts 354°
2026-04-22 03:07 25.49056 113.45212 31090 ft 455 kts 354°
2026-04-22 03:07 25.55422 113.45395 31097 ft 456 kts 354°
2026-04-22 03:08 25.61737 113.45577 31094 ft 455 kts 354°
2026-04-22 03:08 25.68082 113.45761 31089 ft 455 kts 354°
2026-04-22 03:09 25.74407 113.45946 31097 ft 456 kts 354°
2026-04-22 03:09 25.80757 113.46133 31093 ft 456 kts 354°
2026-04-22 03:10 25.87102 113.46274 31081 ft 453 kts 352°
2026-04-22 03:10 25.93406 113.46067 31082 ft 451 kts 350°
2026-04-22 03:11 25.99667 113.45816 31076 ft 451 kts 350°
2026-04-22 03:11 26.05797 113.45576 31084 ft 451 kts 350°
2026-04-22 03:12 26.12112 113.45332 31080 ft 453 kts 350°
2026-04-22 03:12 26.21569 113.44978 31082 ft 453 kts 350°
2026-04-22 03:13 26.27852 113.44740 31079 ft 452 kts 350°
2026-04-22 03:13 26.34137 113.44498 31084 ft 452 kts 350°
2026-04-22 03:14 26.40472 113.44254 31074 ft 453 kts 350°
2026-04-22 03:14 26.46738 113.44018 31074 ft 453 kts 350°
2026-04-22 03:15 26.53049 113.43774 31074 ft 453 kts 349°
2026-04-22 03:15 26.59382 113.43526 31072 ft 455 kts 350°
2026-04-22 03:16 26.65696 113.43282 31087 ft 454 kts 349°
2026-04-22 03:16 26.68892 113.43159 31252 ft 456 kts 349°
2026-04-22 03:16 26.72071 113.43037 31529 ft 455 kts 349°
2026-04-22 03:17 26.75212 113.42916 31806 ft 454 kts 349°
2026-04-22 03:17 26.78390 113.42794 32083 ft 453 kts 349°
2026-04-22 03:17 26.81513 113.42673 32328 ft 452 kts 349°
2026-04-22 03:17 26.84669 113.42551 32533 ft 452 kts 349°
2026-04-22 03:18 26.87787 113.42431 32705 ft 452 kts 349°
2026-04-22 03:18 26.90949 113.42309 32902 ft 453 kts 349°
2026-04-22 03:18 26.94098 113.42186 33065 ft 454 kts 349°
2026-04-22 03:18 26.97253 113.42064 33074 ft 454 kts 349°
2026-04-22 03:19 27.03598 113.41820 33073 ft 455 kts 349°
2026-04-22 03:19 27.09952 113.41575 33088 ft 456 kts 349°
2026-04-22 03:20 27.16323 113.41334 33096 ft 458 kts 349°
2026-04-22 03:20 27.22688 113.41093 33089 ft 459 kts 349°
2026-04-22 03:21 27.29059 113.40848 33095 ft 459 kts 349°
2026-04-22 03:21 27.35475 113.40739 33090 ft 464 kts 352°
2026-04-22 03:22 27.41949 113.40862 33089 ft 463 kts 352°
2026-04-22 03:22 27.48385 113.40997 33095 ft 465 kts 352°
2026-04-22 03:23 27.54905 113.41128 33096 ft 467 kts 352°
2026-04-22 03:23 27.61385 113.41258 33101 ft 467 kts 352°
2026-04-22 03:24 27.67935 113.41547 33097 ft 472 kts 355°
2026-04-22 03:24 27.74477 113.42127 33102 ft 472 kts 356°
2026-04-22 03:25 27.81054 113.42722 33092 ft 475 kts 356°
2026-04-22 03:25 27.87657 113.43310 33099 ft 476 kts 356°
2026-04-22 03:26 27.94254 113.43893 33092 ft 475 kts 356°
2026-04-22 03:26 28.00876 113.44467 33099 ft 477 kts 356°
2026-04-22 03:27 28.07529 113.45046 33096 ft 480 kts 356°
2026-04-22 03:27 28.14209 113.45570 33100 ft 478 kts 355°
2026-04-22 03:28 28.20822 113.46027 33104 ft 476 kts 355°
2026-04-22 03:28 28.27400 113.46493 33103 ft 472 kts 355°
2026-04-22 03:29 28.33951 113.46967 33100 ft 472 kts 355°
2026-04-22 03:29 28.40546 113.47439 33104 ft 474 kts 356°
2026-04-22 03:30 28.47115 113.47903 33104 ft 473 kts 355°
2026-04-22 03:30 28.53660 113.48369 33096 ft 473 kts 355°
2026-04-22 03:31 28.60241 113.48838 33101 ft 473 kts 356°
2026-04-22 03:31 28.66820 113.49313 33105 ft 473 kts 356°
2026-04-22 03:32 28.73426 113.49789 33106 ft 474 kts 356°
2026-04-22 03:32 28.79995 113.50259 33103 ft 475 kts 356°
2026-04-22 03:33 28.86578 113.50727 33103 ft 473 kts 356°
2026-04-22 03:33 28.93178 113.51196 33103 ft 474 kts 356°
2026-04-22 03:34 28.99777 113.51672 33104 ft 474 kts 356°
2026-04-22 03:34 29.06337 113.52147 33102 ft 473 kts 356°
2026-04-22 03:35 29.12947 113.52628 33104 ft 475 kts 356°
2026-04-22 03:35 29.19551 113.53108 33107 ft 476 kts 356°
2026-04-22 03:36 29.26150 113.53589 33097 ft 476 kts 357°
2026-04-22 03:36 29.32763 113.54106 33104 ft 478 kts 357°
2026-04-22 03:37 29.39383 113.54683 33109 ft 478 kts 358°
2026-04-22 03:37 29.46011 113.55261 33115 ft 479 kts 358°
2026-04-22 03:38 29.52668 113.55841 33111 ft 479 kts 358°
2026-04-22 03:38 29.59340 113.56422 33115 ft 481 kts 357°
2026-04-22 03:39 29.65986 113.57001 33115 ft 480 kts 358°
2026-04-22 03:39 29.72707 113.57588 33119 ft 482 kts 358°
2026-04-22 03:40 29.79381 113.58176 33128 ft 482 kts 358°
2026-04-22 03:40 29.86054 113.58778 33127 ft 484 kts 359°
2026-04-22 03:41 29.92787 113.59969 33127 ft 491 kts
2026-04-22 03:41 29.99397 113.62072 33126 ft 497 kts 13°
2026-04-22 03:42 30.05851 113.65046 33121 ft 502 kts 19°
2026-04-22 03:42 30.12219 113.68291 33121 ft 501 kts 19°
2026-04-22 03:43 30.18644 113.71540 33129 ft 502 kts 19°
2026-04-22 03:43 30.25052 113.74755 33127 ft 502 kts 19°
2026-04-22 03:44 30.31478 113.77973 33126 ft 504 kts 19°
2026-04-22 03:44 30.37865 113.81177 33124 ft 503 kts 19°
2026-04-22 03:45 30.44284 113.84403 33118 ft 503 kts 19°
2026-04-22 03:45 30.50715 113.87641 33119 ft 503 kts 19°
2026-04-22 03:46 30.57134 113.90878 33121 ft 501 kts 19°
2026-04-22 03:46 30.63504 113.94093 33110 ft 501 kts 19°
2026-04-22 03:47 30.69935 113.97239 33112 ft 503 kts 20°
2026-04-22 03:47 30.76278 114.00719 33105 ft 504 kts 21°
2026-04-22 03:48 30.82619 114.04219 33099 ft 504 kts 21°
2026-04-22 03:48 30.88959 114.07641 33098 ft 503 kts 20°
2026-04-22 03:49 30.95332 114.11089 33097 ft 502 kts 21°
2026-04-22 03:49 31.01675 114.14537 33095 ft 502 kts 20°
2026-04-22 03:50 31.07985 114.17966 33092 ft 502 kts 20°
2026-04-22 03:50 31.14305 114.21393 33095 ft 502 kts 20°
2026-04-22 03:51 31.20633 114.24834 33092 ft 502 kts 20°
2026-04-22 03:51 31.26935 114.28266 33096 ft 502 kts 19°
2026-04-22 03:52 31.33345 114.31089 33098 ft 495 kts 11°
2026-04-22 03:52 31.40027 114.32851 33097 ft 488 kts
2026-04-22 03:53 31.46724 114.33511 33102 ft 481 kts 355°
2026-04-22 03:53 31.53415 114.33680 33103 ft 481 kts 355°
2026-04-22 03:54 31.60121 114.33845 33103 ft 481 kts 355°
2026-04-22 03:54 31.66812 114.34036 33108 ft 483 kts 355°
2026-04-22 03:55 31.73543 114.34232 33105 ft 482 kts 355°
2026-04-22 03:55 31.80232 114.34439 33111 ft 483 kts 355°
2026-04-22 03:56 31.86983 114.34641 33110 ft 483 kts 355°
2026-04-22 03:56 31.93699 114.34838 33110 ft 482 kts 355°
2026-04-22 03:57 32.00382 114.35043 33114 ft 480 kts 355°
2026-04-22 03:57 32.07091 114.35242 33115 ft 482 kts 355°
2026-04-22 03:58 32.13750 114.35449 33114 ft 482 kts 355°
2026-04-22 03:58 32.20482 114.35658 33114 ft 484 kts 355°
2026-04-22 03:59 32.27214 114.35947 33114 ft 486 kts 357°
2026-04-22 03:59 32.33998 114.36543 33118 ft 486 kts 358°
2026-04-22 04:00 32.40715 114.37171 33114 ft 488 kts 358°
2026-04-22 04:00 32.47466 114.37794 33115 ft 487 kts 358°
2026-04-22 04:01 32.54244 114.38419 33113 ft 487 kts 358°
2026-04-22 04:01 32.60966 114.39036 33117 ft 487 kts 358°
2026-04-22 04:02 32.67754 114.39659 33117 ft 487 kts 357°
2026-04-22 04:02 32.74480 114.40280 33114 ft 487 kts 358°
2026-04-22 04:03 32.81273 114.40908 33116 ft 488 kts 357°
2026-04-22 04:03 32.88023 114.41537 33112 ft 490 kts 358°
2026-04-22 04:04 32.94808 114.42175 33118 ft 488 kts 357°
2026-04-22 04:04 33.01584 114.42808 33114 ft 487 kts 357°
2026-04-22 04:05 33.08357 114.43443 33113 ft 488 kts 357°
2026-04-22 04:05 33.15154 114.44086 33112 ft 488 kts 357°
2026-04-22 04:06 33.21881 114.44724 33112 ft 488 kts 357°
2026-04-22 04:06 33.28669 114.45364 33115 ft 487 kts 357°
2026-04-22 04:07 33.35464 114.45999 33115 ft 487 kts 357°
2026-04-22 04:07 33.42194 114.46627 33115 ft 487 kts 357°
2026-04-22 04:08 33.48953 114.47268 33118 ft 488 kts 357°
2026-04-22 04:08 33.55712 114.47910 33118 ft 486 kts 357°
2026-04-22 04:09 33.62483 114.48550 33115 ft 488 kts 356°
2026-04-22 04:09 33.69244 114.49178 33115 ft 486 kts 356°
2026-04-22 04:10 33.75972 114.49809 33117 ft 485 kts 356°
2026-04-22 04:10 33.82704 114.50442 33118 ft 486 kts 356°
2026-04-22 04:11 33.89439 114.51068 33111 ft 486 kts 356°
2026-04-22 04:11 33.96147 114.51698 33116 ft 484 kts 356°
2026-04-22 04:12 34.02863 114.52328 33121 ft 484 kts 356°
2026-04-22 04:12 34.09588 114.52966 33115 ft 484 kts 356°
2026-04-22 04:13 34.16266 114.53599 33116 ft 485 kts 356°
2026-04-22 04:13 34.22973 114.54237 33121 ft 484 kts 356°
2026-04-22 04:14 34.29718 114.54881 33118 ft 485 kts 355°
2026-04-22 04:14 34.36399 114.55523 33112 ft 483 kts 355°
2026-04-22 04:15 34.43097 114.56164 33126 ft 482 kts 355°
2026-04-22 04:15 34.49766 114.56795 33113 ft 481 kts 355°
2026-04-22 04:16 34.59801 114.57734 33112 ft 481 kts 355°
2026-04-22 04:17 34.66486 114.58366 33128 ft 484 kts 355°
2026-04-22 04:17 34.73170 114.59000 33122 ft 481 kts 355°
2026-04-22 04:18 34.79842 114.59637 33117 ft 480 kts 355°
2026-04-22 04:18 34.86489 114.60271 33125 ft 481 kts 354°
2026-04-22 04:19 34.93187 114.60908 33122 ft 483 kts 355°
2026-04-22 04:19 34.99879 114.61548 33125 ft 484 kts 355°
2026-04-22 04:20 35.06588 114.62193 33137 ft 484 kts 354°
2026-04-22 04:20 35.13291 114.62835 33123 ft 484 kts 355°
2026-04-22 04:21 35.20009 114.63484 33131 ft 484 kts 355°
2026-04-22 04:21 35.26732 114.64134 33123 ft 483 kts 355°
2026-04-22 04:22 35.33435 114.64779 33126 ft 484 kts 355°
2026-04-22 04:22 35.40126 114.65440 33130 ft 483 kts 356°
2026-04-22 04:23 35.46870 114.66113 33128 ft 489 kts 356°
2026-04-22 04:23 35.53621 114.66784 33100 ft 489 kts 356°
2026-04-22 04:24 35.60402 114.67451 33104 ft 488 kts 356°
2026-04-22 04:24 35.67143 114.68105 33105 ft 487 kts 356°
2026-04-22 04:25 35.73917 114.68764 33099 ft 489 kts 356°
2026-04-22 04:25 35.80691 114.69428 33098 ft 488 kts 356°
2026-04-22 04:26 35.87482 114.70091 33108 ft 489 kts 356°
2026-04-22 04:26 35.94273 114.70753 33106 ft 490 kts 356°
2026-04-22 04:27 36.01049 114.71416 33101 ft 491 kts 356°
2026-04-22 04:27 36.07841 114.72086 33107 ft 490 kts 356°
2026-04-22 04:28 36.14618 114.72752 33097 ft 489 kts 356°
2026-04-22 04:28 36.21369 114.73412 33099 ft 489 kts 356°
2026-04-22 04:29 36.28171 114.74074 33097 ft 487 kts 354°
2026-04-22 04:29 36.34925 114.74609 33097 ft 494 kts
2026-04-22 04:29 36.38263 114.75832 33090 ft 510 kts 16°
2026-04-22 04:30 36.41487 114.77616 33104 ft 507 kts 17°
2026-04-22 04:30 36.47899 114.81160 33100 ft 505 kts 17°
2026-04-22 04:31 36.54272 114.84777 33096 ft 505 kts 17°
2026-04-22 04:31 36.60645 114.88454 33100 ft 505 kts 17°
2026-04-22 04:32 36.67012 114.92149 33098 ft 504 kts 17°
2026-04-22 04:32 36.73373 114.95847 33094 ft 505 kts 18°
2026-04-22 04:33 36.79733 114.99562 33099 ft 504 kts 17°
2026-04-22 04:33 36.86068 115.03262 33100 ft 503 kts 17°
2026-04-22 04:34 36.92397 115.06967 33100 ft 503 kts 17°
2026-04-22 04:34 36.98726 115.10678 33102 ft 504 kts 17°
2026-04-22 04:35 37.05094 115.14417 33098 ft 504 kts 17°
2026-04-22 04:35 37.11399 115.18127 33094 ft 504 kts 17°
2026-04-22 04:36 37.17742 115.21858 33091 ft 504 kts 17°
2026-04-22 04:36 37.24086 115.25597 33086 ft 504 kts 17°
2026-04-22 04:37 37.30389 115.29326 33089 ft 503 kts 17°
2026-04-22 04:37 37.36754 115.33102 33087 ft 504 kts 16°
2026-04-22 04:38 37.43053 115.36845 33091 ft 503 kts 17°
2026-04-22 04:38 37.49390 115.40619 33090 ft 504 kts 17°
2026-04-22 04:39 37.55696 115.44382 32921 ft 504 kts 16°
2026-04-22 04:39 37.58847 115.46263 32660 ft 504 kts 17°
2026-04-22 04:39 37.62040 115.48173 32401 ft 505 kts 17°
2026-04-22 04:39 37.65197 115.50065 32134 ft 505 kts 17°
2026-04-22 04:40 37.68383 115.51973 31874 ft 506 kts 17°
2026-04-22 04:40 37.71562 115.53881 31614 ft 506 kts 17°
2026-04-22 04:40 37.74775 115.55604 31345 ft 502 kts 11°
2026-04-22 04:40 37.78085 115.56916 31125 ft 500 kts
2026-04-22 04:41 37.81506 115.57808 31097 ft 498 kts 359°
2026-04-22 04:41 37.88284 115.58305 31094 ft 481 kts 348°
2026-04-22 04:42 37.94937 115.57797 31101 ft 479 kts 346°
2026-04-22 04:42 38.01570 115.57244 31097 ft 481 kts 346°
2026-04-22 04:43 38.08276 115.56734 31094 ft 482 kts 347°
2026-04-22 04:43 38.14942 115.56387 31084 ft 479 kts 347°
2026-04-22 04:44 38.21618 115.56068 31085 ft 487 kts 352°
2026-04-22 04:44 38.28469 115.57285 31088 ft 506 kts
2026-04-22 04:45 38.35080 115.60491 31099 ft 513 kts 17°
2026-04-22 04:45 38.41415 115.64592 31092 ft 508 kts 19°
2026-04-22 04:46 38.47696 115.68660 31087 ft 507 kts 18°
2026-04-22 04:46 38.53989 115.72643 31087 ft 506 kts 18°
2026-04-22 04:47 38.60309 115.76651 31085 ft 510 kts 19°
2026-04-22 04:47 38.66324 115.81561 31087 ft 513 kts 31°
2026-04-22 04:48 38.71561 115.87786 31089 ft 520 kts 41°
2026-04-22 04:48 38.76341 115.94682 31086 ft 523 kts 43°
2026-04-22 04:49 38.81150 116.01687 31092 ft 522 kts 43°
2026-04-22 04:49 38.85983 116.08650 31093 ft 523 kts 41°
2026-04-22 04:50 38.90808 116.15586 31095 ft 523 kts 41°
2026-04-22 04:50 38.95633 116.22532 31095 ft 523 kts 42°
2026-04-22 04:51 39.00467 116.29502 31099 ft 523 kts 42°
2026-04-22 04:51 39.05267 116.36452 31091 ft 521 kts 42°
2026-04-22 04:52 39.10081 116.43433 31101 ft 520 kts 42°
2026-04-22 04:52 39.14864 116.50351 31090 ft 518 kts 41°
2026-04-22 04:53 39.20147 116.56359 31103 ft 501 kts 25°
2026-04-22 04:53 39.26276 116.60432 31118 ft 494 kts 10°
2026-04-22 04:54 39.32805 116.63399 31093 ft 503 kts
2026-04-22 04:54 39.39382 116.66383 31112 ft 503 kts 10°
2026-04-22 04:55 39.45967 116.69465 31114 ft 502 kts 11°
2026-04-22 04:55 39.52538 116.72543 31118 ft 502 kts 11°
2026-04-22 04:56 39.59048 116.75600 31120 ft 499 kts 11°
2026-04-22 04:56 39.65577 116.78658 31083 ft 500 kts 11°
2026-04-22 04:57 39.72080 116.81717 31114 ft 497 kts 11°
2026-04-22 04:57 39.78661 116.83917 31092 ft 480 kts 358°
2026-04-22 04:58 39.85211 116.84291 31135 ft 461 kts 346°
2026-04-22 04:58 39.91445 116.83248 31109 ft 452 kts 341°
2026-04-22 04:59 39.97691 116.81942 31105 ft 452 kts 341°
2026-04-22 04:59 40.03894 116.80675 31091 ft 452 kts 341°
2026-04-22 05:00 40.10072 116.79428 31104 ft 453 kts 341°
2026-04-22 05:00 40.16297 116.78185 31090 ft 454 kts 342°
2026-04-22 05:01 40.22536 116.76935 31105 ft 453 kts 342°
2026-04-22 05:01 40.28759 116.75761 31089 ft 457 kts 345°
2026-04-22 05:02 40.35162 116.75342 31082 ft 464 kts 352°
2026-04-22 05:02 40.41638 116.75857 31104 ft 471 kts 357°
2026-04-22 05:03 40.48140 116.76685 31095 ft 470 kts 358°
2026-04-22 05:03 40.54660 116.77522 31112 ft 468 kts 358°
2026-04-22 05:04 40.61144 116.78344 31099 ft 469 kts 357°
2026-04-22 05:04 40.67612 116.79156 31101 ft 470 kts 358°
2026-04-22 05:05 40.74112 116.79973 31111 ft 469 kts 358°
2026-04-22 05:05 40.80576 116.80461 31114 ft 465 kts 355°
2026-04-22 05:06 40.87025 116.80782 31114 ft 463 kts 355°
2026-04-22 05:06 40.93453 116.81107 31108 ft 463 kts 355°
2026-04-22 05:07 40.99904 116.81436 31127 ft 464 kts 355°
2026-04-22 05:07 41.06336 116.81770 31109 ft 464 kts 356°
2026-04-22 05:08 41.12777 116.82107 31109 ft 463 kts 356°
2026-04-22 05:08 41.19196 116.82444 31103 ft 462 kts 356°
2026-04-22 05:09 41.25635 116.82783 31107 ft 461 kts 356°
2026-04-22 05:09 41.32021 116.83119 31110 ft 461 kts 356°
2026-04-22 05:10 41.38416 116.83458 31113 ft 461 kts 356°
2026-04-22 05:10 41.44812 116.83794 31116 ft 460 kts 356°
2026-04-22 05:11 41.51189 116.84130 31118 ft 460 kts 356°
2026-04-22 05:11 41.57570 116.84467 31120 ft 459 kts 357°
2026-04-22 05:12 41.63951 116.85420 31113 ft 469 kts 11°
2026-04-22 05:12 41.67015 116.86993 31115 ft 476 kts 22°
2026-04-22 05:12 41.69805 116.89307 31116 ft 483 kts 33°
2026-04-22 05:12 41.72314 116.92413 31115 ft 490 kts 45°
2026-04-22 05:13 41.74317 116.96098 31118 ft 495 kts 57°
2026-04-22 05:13 41.77287 117.04360 31125 ft 496 kts 63°
2026-04-22 05:14 41.80121 117.12807 31121 ft 497 kts 63°
2026-04-22 05:14 41.82969 117.21162 31114 ft 497 kts 62°
2026-04-22 05:15 41.85854 117.29547 31116 ft 496 kts 62°
2026-04-22 05:15 41.88745 117.37956 31114 ft 496 kts 62°
2026-04-22 05:16 41.91623 117.46358 31112 ft 497 kts 62°
2026-04-22 05:16 41.94499 117.54765 31115 ft 497 kts 62°
2026-04-22 05:17 41.97354 117.63139 31112 ft 496 kts 62°
2026-04-22 05:17 42.00235 117.71643 31112 ft 496 kts 63°
2026-04-22 05:18 42.04503 117.84281 31118 ft 496 kts 63°
2026-04-22 05:18 42.07339 117.92693 31112 ft 497 kts 63°
2026-04-22 05:19 42.10173 118.01122 31114 ft 497 kts 63°
2026-04-22 05:19 42.13041 118.09601 31116 ft 498 kts 62°
2026-04-22 05:20 42.15889 118.18085 31113 ft 498 kts 62°
2026-04-22 05:20 42.18758 118.26608 31106 ft 498 kts 61°
2026-04-22 05:21 42.21798 118.34980 31106 ft 499 kts 60°
2026-04-22 05:21 42.24847 118.43328 31114 ft 499 kts 60°
2026-04-22 05:22 42.27898 118.51736 31106 ft 498 kts 60°
2026-04-22 05:22 42.30922 118.60105 31110 ft 499 kts 60°
2026-04-22 05:23 42.33960 118.68559 31110 ft 499 kts 60°
2026-04-22 05:23 42.36975 118.76995 31111 ft 500 kts 61°
2026-04-22 05:24 42.39974 118.85407 31112 ft 501 kts 60°
2026-04-22 05:24 42.43000 118.93901 31105 ft 501 kts 60°
2026-04-22 05:25 42.46012 119.02369 31107 ft 501 kts 60°
2026-04-22 05:25 42.49022 119.10864 31112 ft 501 kts 60°
2026-04-22 05:26 42.52023 119.19360 31115 ft 502 kts 60°
2026-04-22 05:26 42.55006 119.27833 31118 ft 502 kts 60°
2026-04-22 05:27 42.58001 119.36360 31119 ft 503 kts 60°
2026-04-22 05:27 42.61005 119.44942 31118 ft 503 kts 60°
2026-04-22 05:28 42.63987 119.53482 31122 ft 503 kts 60°
2026-04-22 05:28 42.66958 119.62025 31125 ft 503 kts 60°
2026-04-22 05:29 42.69942 119.70654 31121 ft 502 kts 61°
2026-04-22 05:29 42.72903 119.79243 31125 ft 502 kts 60°
2026-04-22 05:30 42.75861 119.87836 31126 ft 503 kts 60°
2026-04-22 05:30 42.77348 119.92166 30929 ft 503 kts 60°
2026-04-22 05:30 42.78809 119.96421 30672 ft 500 kts 60°
2026-04-22 05:31 42.80280 120.00716 30406 ft 498 kts 60°
2026-04-22 05:31 42.81730 120.04956 30139 ft 496 kts 60°
2026-04-22 05:31 42.83180 120.09202 29870 ft 494 kts 60°
2026-04-22 05:31 42.84623 120.13431 29604 ft 492 kts 60°
2026-04-22 05:32 42.86051 120.17623 29338 ft 489 kts 60°
2026-04-22 05:32 42.87470 120.21793 29143 ft 487 kts 60°
2026-04-22 05:32 42.90309 120.30149 29124 ft 488 kts 60°
2026-04-22 05:33 42.93147 120.38533 29125 ft 489 kts 60°
2026-04-22 05:33 42.95980 120.46938 29127 ft 489 kts 60°
2026-04-22 05:34 42.98903 120.55336 29129 ft 489 kts 58°
2026-04-22 05:34 43.01878 120.63602 29128 ft 488 kts 58°
2026-04-22 05:35 43.04862 120.71961 29128 ft 488 kts 59°
2026-04-22 05:35 43.07798 120.80248 29129 ft 488 kts 58°
2026-04-22 05:36 43.10757 120.88605 29130 ft 489 kts 58°
2026-04-22 05:36 43.13729 120.96948 29129 ft 488 kts 58°
2026-04-22 05:37 43.16668 121.05260 29128 ft 489 kts 58°
2026-04-22 05:37 43.19608 121.13629 29123 ft 489 kts 58°
2026-04-22 05:38 43.22551 121.22042 29120 ft 490 kts 58°
2026-04-22 05:38 43.25478 121.30434 29110 ft 491 kts 58°
2026-04-22 05:39 43.26941 121.34642 28830 ft 488 kts 58°
2026-04-22 05:39 43.28390 121.38818 28562 ft 486 kts 58°
2026-04-22 05:39 43.29846 121.43024 28300 ft 484 kts 58°
2026-04-22 05:39 43.31269 121.47137 28043 ft 483 kts 58°
2026-04-22 05:40 43.32705 121.51290 27776 ft 481 kts 58°
2026-04-22 05:40 43.34127 121.55410 27506 ft 480 kts 58°
2026-04-22 05:40 43.35558 121.59565 27255 ft 478 kts 58°
2026-04-22 05:40 43.36969 121.63663 26989 ft 476 kts 58°
2026-04-22 05:41 43.38380 121.67778 26730 ft 474 kts 58°
2026-04-22 05:41 43.39770 121.71849 26637 ft 474 kts 58°
2026-04-22 05:41 43.41164 121.75932 26629 ft 474 kts 58°
2026-04-22 05:41 43.42556 121.80011 26622 ft 475 kts 58°
2026-04-22 05:42 43.43965 121.84141 26630 ft 475 kts 58°
2026-04-22 05:42 43.45345 121.88189 26626 ft 475 kts 58°
2026-04-22 05:42 43.46759 121.92342 26623 ft 475 kts 58°
2026-04-22 05:42 43.48156 121.96451 26627 ft 475 kts 58°
2026-04-22 05:43 43.49547 122.00555 26628 ft 475 kts 58°
2026-04-22 05:43 43.50935 122.04654 26630 ft 475 kts 58°
2026-04-22 05:43 43.52330 122.08777 26632 ft 475 kts 58°
2026-04-22 05:43 43.53710 122.12862 26626 ft 475 kts 58°
2026-04-22 05:44 43.55036 122.17047 26624 ft 479 kts 63°
2026-04-22 05:44 43.55977 122.21419 26631 ft 486 kts 72°
2026-04-22 05:44 43.56488 122.26068 26629 ft 490 kts 79°
2026-04-22 05:44 43.56770 122.30746 26623 ft 492 kts 82°
2026-04-22 05:45 43.56997 122.35393 26629 ft 492 kts 82°
2026-04-22 05:45 43.57227 122.40113 26625 ft 492 kts 82°
2026-04-22 05:45 43.57465 122.44765 26619 ft 492 kts 81°
2026-04-22 05:45 43.57715 122.49464 26473 ft 492 kts 81°
2026-04-22 05:46 43.57967 122.54137 26222 ft 489 kts 81°
2026-04-22 05:46 43.58225 122.58824 25970 ft 487 kts 81°
2026-04-22 05:46 43.58480 122.63448 25714 ft 485 kts 81°
2026-04-22 05:46 43.58735 122.68079 25455 ft 483 kts 82°
2026-04-22 05:47 43.58982 122.72634 25205 ft 481 kts 82°
2026-04-22 05:47 43.59229 122.77244 24941 ft 480 kts 82°
2026-04-22 05:47 43.59470 122.81767 24691 ft 478 kts 82°
2026-04-22 05:47 43.59714 122.86365 24621 ft 477 kts 82°
2026-04-22 05:48 43.59952 122.90878 24628 ft 478 kts 82°
2026-04-22 05:48 43.60192 122.95464 24619 ft 478 kts 82°
2026-04-22 05:48 43.60427 122.99980 24625 ft 477 kts 81°
2026-04-22 05:48 43.60665 123.04561 24627 ft 478 kts 82°
2026-04-22 05:49 43.60898 123.09124 24622 ft 478 kts 81°
2026-04-22 05:49 43.61127 123.13664 24620 ft 478 kts 81°
2026-04-22 05:49 43.61355 123.18210 24616 ft 478 kts 81°
2026-04-22 05:49 43.61604 123.22777 24616 ft 477 kts 80°
2026-04-22 05:50 43.61894 123.27298 24611 ft 477 kts 80°
2026-04-22 05:50 43.62199 123.31855 24613 ft 477 kts 80°
2026-04-22 05:50 43.62504 123.36443 24618 ft 478 kts 80°
2026-04-22 05:50 43.62801 123.40990 24615 ft 478 kts 80°
2026-04-22 05:51 43.63092 123.45524 24617 ft 478 kts 80°
2026-04-22 05:51 43.63381 123.50082 24495 ft 479 kts 80°
2026-04-22 05:51 43.63663 123.54600 24227 ft 475 kts 80°
2026-04-22 05:51 43.63945 123.59117 23974 ft 472 kts 80°
2026-04-22 05:52 43.64223 123.63630 23721 ft 470 kts 80°
2026-04-22 05:52 43.64498 123.68115 23461 ft 468 kts 81°
2026-04-22 05:52 43.64768 123.72576 23200 ft 466 kts 81°
2026-04-22 05:52 43.65037 123.77013 22941 ft 464 kts 81°
2026-04-22 05:53 43.65302 123.81438 22687 ft 462 kts 81°
2026-04-22 05:53 43.65564 123.85826 22611 ft 460 kts 80°
2026-04-22 05:53 43.65823 123.90172 22606 ft 461 kts 80°
2026-04-22 05:53 43.66088 123.94624 22599 ft 461 kts 80°
2026-04-22 05:54 43.66345 123.98972 22597 ft 461 kts 81°
2026-04-22 05:54 43.66602 124.03382 22600 ft 462 kts 80°
2026-04-22 05:54 43.66858 124.07827 22601 ft 461 kts 80°
2026-04-22 05:54 43.67109 124.12190 22593 ft 462 kts 80°
2026-04-22 05:55 43.67365 124.16647 22594 ft 462 kts 80°
2026-04-22 05:55 43.67614 124.21034 22597 ft 462 kts 80°
2026-04-22 05:55 43.67839 124.25443 22591 ft 464 kts 83°
2026-04-22 05:55 43.67629 124.29928 22588 ft 471 kts 96°
2026-04-22 05:56 43.66805 124.34260 22580 ft 475 kts 108°
2026-04-22 05:56 43.65530 124.38466 22599 ft 476 kts 113°
2026-04-22 05:56 43.64137 124.42639 22587 ft 476 kts 114°
2026-04-22 05:56 43.62878 124.46812 22569 ft 475 kts 105°
2026-04-22 05:57 43.62219 124.51227 22574 ft 470 kts 91°
2026-04-22 05:57 43.62222 124.55684 22595 ft 463 kts 80°
2026-04-22 05:57 43.62535 124.60134 22545 ft 463 kts 77°
2026-04-22 05:57 43.62885 124.64483 22080 ft 462 kts 77°
2026-04-22 05:58 43.63205 124.68881 21621 ft 458 kts 79°
2026-04-22 05:58 43.63484 124.73225 21137 ft 455 kts 79°
2026-04-22 05:58 43.63743 124.77567 20655 ft 451 kts 79°
2026-04-22 05:58 43.63994 124.81850 20197 ft 447 kts 79°
2026-04-22 05:59 43.64238 124.86055 19746 ft 443 kts 79°
2026-04-22 05:59 43.64482 124.90276 19299 ft 438 kts 79°
2026-04-22 05:59 43.64721 124.94416 18857 ft 434 kts 79°
2026-04-22 05:59 43.64950 124.98528 18405 ft 430 kts 78°
2026-04-22 06:00 43.65180 125.02628 17958 ft 426 kts 78°
2026-04-22 06:00 43.65409 125.06659 17521 ft 423 kts 78°
2026-04-22 06:00 43.65636 125.10671 17098 ft 419 kts 78°
2026-04-22 06:00 43.65861 125.14691 16661 ft 415 kts 78°
2026-04-22 06:01 43.66082 125.18604 16227 ft 412 kts 78°
2026-04-22 06:01 43.66301 125.22514 15781 ft 409 kts 78°
2026-04-22 06:01 43.66516 125.26421 15334 ft 405 kts 78°
2026-04-22 06:01 43.66723 125.30244 14906 ft 402 kts 78°
2026-04-22 06:02 43.66940 125.34090 14460 ft 397 kts 76°
2026-04-22 06:02 43.67565 125.37675 14003 ft 377 kts 58°
2026-04-22 06:02 43.68869 125.40665 13610 ft 356 kts 42°
2026-04-22 06:02 43.70475 125.43220 13204 ft 348 kts 39°
2026-04-22 06:03 43.72090 125.45681 12798 ft 343 kts 39°
2026-04-22 06:03 43.73662 125.48109 12393 ft 339 kts 40°
2026-04-22 06:03 43.75201 125.50527 11984 ft 335 kts 41°
2026-04-22 06:03 43.76730 125.52954 11570 ft 331 kts 41°
2026-04-22 06:04 43.78220 125.55328 11166 ft 328 kts 42°
2026-04-22 06:04 43.79694 125.57686 10699 ft 326 kts 43°
2026-04-22 06:04 43.81171 125.60053 10169 ft 317 kts 43°
2026-04-22 06:04 43.82571 125.62301 9586 ft 306 kts 43°
2026-04-22 06:05 43.83936 125.64497 9027 ft 294 kts 43°
2026-04-22 06:05 43.85247 125.66611 8442 ft 285 kts 44°
2026-04-22 06:05 43.86483 125.68614 8134 ft 268 kts 44°
2026-04-22 06:05 43.87678 125.70545 7865 ft 261 kts 44°
2026-04-22 06:06 43.88846 125.72428 7587 ft 255 kts 44°
2026-04-22 06:06 43.89989 125.74267 7309 ft 250 kts 44°
2026-04-22 06:06 43.91125 125.76091 7047 ft 246 kts 44°
2026-04-22 06:06 43.92233 125.77872 6772 ft 243 kts 44°
2026-04-22 06:07 43.93322 125.79630 6517 ft 239 kts 44°
2026-04-22 06:07 43.94385 125.81345 6254 ft 235 kts 44°
2026-04-22 06:07 43.95449 125.83065 5996 ft 231 kts 44°
2026-04-22 06:07 43.96478 125.84727 5755 ft 227 kts 44°
2026-04-22 06:08 43.97510 125.86392 5504 ft 223 kts 44°
2026-04-22 06:08 43.98507 125.88007 5260 ft 219 kts 44°
2026-04-22 06:08 43.99486 125.89591 5028 ft 215 kts 44°
2026-04-22 06:08 44.00440 125.91138 4901 ft 210 kts 43°
2026-04-22 06:09 44.01367 125.92646 4959 ft 196 kts 43°
2026-04-22 06:09 44.02215 125.94029 4888 ft 179 kts 43°
2026-04-22 06:09 44.02978 125.95275 4853 ft 162 kts 42°
2026-04-22 06:09 44.03767 125.96365 4738 ft 156 kts 25°
2026-04-22 06:10 44.04725 125.96882 4531 ft 145 kts
2026-04-22 06:10 44.05708 125.96832 4353 ft 141 kts 341°
2026-04-22 06:10 44.06603 125.96282 4172 ft 142 kts 322°
2026-04-22 06:10 44.07366 125.95418 3995 ft 144 kts 318°
2026-04-22 06:11 44.08131 125.94501 3815 ft 144 kts 318°
2026-04-22 06:11 44.08877 125.93604 3649 ft 143 kts 316°
2026-04-22 06:11 44.09405 125.92440 3490 ft 143 kts 291°
2026-04-22 06:11 44.09508 125.91063 3328 ft 144 kts 270°
2026-04-22 06:12 44.09321 125.89712 3168 ft 144 kts 261°
2026-04-22 06:12 44.09017 125.88370 3028 ft 147 kts 257°
2026-04-22 06:12 44.08667 125.87026 2984 ft 146 kts 259°
2026-04-22 06:12 44.08365 125.85705 2978 ft 143 kts 261°
2026-04-22 06:13 44.08109 125.84367 2985 ft 140 kts 262°
2026-04-22 06:13 44.07813 125.83075 2953 ft 140 kts 256°
2026-04-22 06:13 44.07408 125.81829 2866 ft 142 kts 250°
2026-04-22 06:13 44.06900 125.80665 2652 ft 141 kts 243°
2026-04-22 06:14 44.06340 125.79562 2468 ft 140 kts 240°
2026-04-22 06:14 44.05763 125.78484 2279 ft 139 kts 238°
2026-04-22 06:14 44.05155 125.77445 2067 ft 140 kts 236°
2026-04-22 06:14 44.04518 125.76405 1871 ft 142 kts 236°
2026-04-22 06:15 44.03870 125.75364 1740 ft 141 kts 233°
2026-04-22 06:15 44.03229 125.74332 1492 ft 142 kts 234°
2026-04-22 06:15 44.02578 125.73281 1342 ft 145 kts 234°
2026-04-22 06:15 44.01929 125.72233 1155 ft 142 kts 233°
2026-04-22 06:16 44.01279 125.71185 967 ft 140 kts 233°
2026-04-22 06:16 44.00651 125.70169 796 ft 137 kts 232°
2026-04-22 06:16 44.00061 125.69209 715 ft 118 kts 228°
2026-04-22 06:16 43.99723 125.68665 715 ft 30 kts 237°
2026-04-22 06:17 43.99633 125.68520 715 ft 19 kts 224°
2026-04-22 06:17 43.99524 125.68413 715 ft 18 kts 210°
2026-04-22 06:17 43.99406 125.68346 715 ft 15 kts 200°
2026-04-22 06:17 43.99343 125.68370 715 ft 10 kts 118°
2026-04-22 06:18 43.99371 125.68462 715 ft 11 kts 50°
2026-04-22 06:18 43.99426 125.68549 715 ft 12 kts 49°
2026-04-22 06:18 43.99483 125.68642 715 ft 13 kts 49°
2026-04-22 06:18 43.99545 125.68743 715 ft 13 kts 49°
2026-04-22 06:19 43.99610 125.68848 715 ft 14 kts 50°
2026-04-22 06:19 43.99656 125.68942 715 ft 10 kts 95°
2026-04-22 06:19 43.99603 125.69023 715 ft 11 kts 141°
2026-04-22 06:19 43.99575 125.69094 715 ft 9 kts 67°
2026-04-22 06:20 43.99621 125.69172 715 ft 10 kts 49°
2026-04-22 06:20 43.99672 125.69255 715 ft 11 kts 49°
2026-04-22 06:20 43.99728 125.69345 715 ft 11 kts 49°
2026-04-22 06:20 43.99746 125.69390 715 ft 4 kts 101°
2026-04-22 06:21 43.99718 125.69434 715 ft 6 kts 139°
2026-04-22 06:21 43.99696 125.69459 715 ft 0 kts 140°